Nogales, AZ

5:21 PM MST on May 22, 2018 (GMT -0700)
Nogales International

Weather History for KOLS - March, 2013

Change the Weather History Date:

Thursday, March 7, 2013

  Actual Average (KFHU) Record (KFHU)
Temperature  
Mean Temperature 56 °F -  
Max Temperature 73 °F 65 °F 81 °F (1989)
Min Temperature 39 °F 42 °F 29 °F (1984)
Degree Days  
Heating Degree Days 9    
Growing Degree Days 6 (Base 50)    
Moisture  
Dew Point 20 °F    
Average Humidity 27    
Maximum Humidity 58    
Minimum Humidity 8    
Precipitation  
Precipitation 0.00 in - - ()
Sea Level Pressure  
Sea Level Pressure 29.88 in    
Wind  
Wind Speed 7 mph (South)    
Max Wind Speed 20 mph    
Max Gust Speed 28 mph    
Visibility 10 miles    
Events      
Averages and records for this station are not official NWS values.
T = Trace of Precipitation, MM = Missing Value Source: NWS Daily Summary

Daily Weather History Graph

Daily Weather History Graph

Search for Another Location

Airport or City:

Astronomy

Mar. 07, 2013 Rise Set
Actual Time 6:42 AM MST 6:26 PM MST
Civil Twilight 6:18 AM MST 6:50 PM MST
Nautical Twilight 5:50 AM MST 7:18 PM MST
Astronomical Twilight 5:22 AM MST 7:46 PM MST
Moon 3:32 AM MST (3/7) 2:30 PM MST (3/7)
Length of Visible Light 12h 31m
Length of Day
11h 43m
Waning Crescent, 19% of the Moon is Illuminated
Mar 7
Waning Crescent
Mar 11
New
Mar 19
First Quarter
Mar 27
Full
Apr 2
Last Quarter

Hourly Weather History & Observations

Time (MST) Temp. Windchill Dew Point Humidity Pressure Visibility Wind Dir Wind Speed Gust Speed Precip Events Conditions
12:54 AM 46.9 °F - 18.0 °F 32% 29.88 in 10.0 mi East 3.5 mph - N/A   Clear
1:54 AM 45.0 °F 41.8 °F 25.0 °F 46% 29.88 in 10.0 mi ENE 5.8 mph - N/A   Clear
2:54 AM 46.0 °F 43.1 °F 26.1 °F 46% 29.85 in 10.0 mi East 5.8 mph - N/A   Clear
3:54 AM 43.0 °F - 26.1 °F 51% 29.86 in 10.0 mi Calm Calm - N/A   Clear
4:54 AM 46.0 °F - 26.1 °F 46% 29.86 in 10.0 mi Calm Calm - N/A   Clear
5:54 AM 44.1 °F - 26.1 °F 49% 29.89 in 10.0 mi Calm Calm - N/A   Clear
6:54 AM 39.9 °F - 26.1 °F 58% 29.92 in 10.0 mi Calm Calm - N/A   Clear
7:54 AM 50.0 °F - 27.0 °F 41% 29.92 in 10.0 mi Calm Calm - N/A   Clear
8:54 AM 57.0 °F - 26.1 °F 30% 29.92 in 10.0 mi SSE 8.1 mph - N/A   Clear
9:54 AM 66.0 °F - 28.0 °F 24% 29.91 in 10.0 mi SSW 11.5 mph - N/A   Clear
10:54 AM 69.1 °F - 21.9 °F 17% 29.91 in 10.0 mi South 17.3 mph - N/A   Clear
11:54 AM 71.1 °F - 19.0 °F 14% 29.91 in 10.0 mi SSW 18.4 mph - N/A   Clear
12:54 PM 72.0 °F - 8.1 °F 8% 29.89 in 10.0 mi SSW 16.1 mph - N/A   Clear
1:54 PM 73.0 °F - 12.0 °F 10% 29.87 in 10.0 mi SW 17.3 mph 27.6 mph N/A   Clear
2:54 PM 71.1 °F - 14.0 °F 11% 29.85 in 10.0 mi SSW 18.4 mph 24.2 mph N/A   Clear
3:54 PM 71.1 °F - 17.1 °F 13% 29.86 in 10.0 mi SSW 12.7 mph - N/A   Clear
4:54 PM 70.0 °F - 17.1 °F 13% 29.86 in 10.0 mi SSW 19.6 mph - N/A   Clear
5:54 PM 68.0 °F - 17.1 °F 14% 29.87 in 10.0 mi SW 15.0 mph - N/A   Clear
6:54 PM 63.0 °F - 18.0 °F 18% 29.91 in 10.0 mi West 9.2 mph - N/A   Clear
7:54 PM 59.0 °F - 18.0 °F 20% 29.89 in 10.0 mi SSE 4.6 mph - N/A   Clear
8:54 PM 60.1 °F - 17.1 °F 19% 29.87 in 10.0 mi South 5.8 mph - N/A   Scattered Clouds
9:54 PM 57.0 °F - 16.0 °F 20% 29.86 in 10.0 mi SSW 4.6 mph - N/A   Overcast
10:54 PM 54.0 °F - 19.0 °F 25% 29.85 in 10.0 mi SSE 4.6 mph - N/A   Partly Cloudy
11:54 PM 55.0 °F - 21.0 °F 27% 29.85 in 10.0 mi South 5.8 mph - N/A   Overcast